Starlink 2330

operational
NORAD ID: 47874 Int'l Des: 2021-021 Owner: SPXS Country: US Constellation: starlink
LEOCIRCULARSTARLINK_TYPE

Starlink 2330について

説明を読み込み中...

リアルタイム位置

3D地球を読み込み中...

次回通過

高度履歴

Altitude vs Time

uPlot chart will show altitude changes over time

軌道要素

1 47874U 21021Q 25349.96501342 .00000578 00000-0 57686-4 0 9995
2 47874 53.0532 232.4827 0001440 92.4644 267.6510 15.06403534264343
Epoch: Dec 15, 2025 • Age: 10 hours

現在のステータス

高度 549.2 km
速度 7.59 km/s
衛星直下点 -6.56°S, 172.99°W
打ち上げ日 Mar 14, 2021
運用期間 4.7 years
タイプ internet

技術仕様

分類 Payload
質量 260.00 kg
乾燥質量 248.00 kg
総質量 260.00 kg
長さ 0.20 m
直径 2.80 m
スパン 9.00 m
形状 Box + pan
製造者 SPXS
バスタイプ Starlink
フェーズステータス In Orbit
所有者/国 SPXS/US

大規模コンステレーション

Loading constellations...